{"data":{"norad_id":43055,"epoch":"2026-09-19T10:55:25.847328Z","epoch_age_seconds":104695,"freshness":"FRESH","line1":"1 43055U 17079A   26262.45516027  .00000016  00000+0  00000+0 0  9994","line2":"2 43055  55.0517 218.9141 0003150 284.3874  75.5511  1.70473929 54592","mean_motion":1.70473929,"eccentricity":0.000315,"inclination_deg":55.0517,"raan_deg":218.9141,"arg_perigee_deg":284.3874,"mean_anomaly_deg":75.5511,"bstar":0,"rev_number":5459,"period_min":844.70394297066,"perigee_km":23212.867172903,"apogee_km":23231.515379717,"semimajor_km":29600.32827631,"source":"CELESTRAK","updated_at":"2026-09-20T09:00:46.496008Z"}}